Weather History for KOLU - December, 2012

Change the Weather History Date:

Wednesday, December 26, 2012

  Actual Average Record
Temperature  
Mean Temperature 12 °F -  
Max Temperature 17 °F 33 °F 59 °F (2005)
Min Temperature 6 °F 15 °F -17 °F (1962)
Degree Days  
Heating Degree Days 54    
Moisture  
Dew Point 6 °F    
Average Humidity 74    
Maximum Humidity 85    
Minimum Humidity 63    
Precipitation  
Precipitation 0.00 in - - ()
Sea Level Pressure  
Sea Level Pressure 30.14 in    
Wind  
Wind Speed 6 mph (East)    
Max Wind Speed 10 mph    
Max Gust Speed -    
Visibility 10 miles    
Events      
Averages and records for this station are not official NWS values.
T = Trace of Precipitation, MM = Missing Value Source: NWS Daily Summary

Daily Weather History Graph

Daily Weather History Graph

Search for Another Location

Airport or City:

Trip Planner

Search our weather history database for the weather conditions in past years. The results will help you decide how hot, cold, wet, or windy it might be!

Date:

Astronomy

Dec. 26, 2012 Rise Set
Actual Time 7:54 AM CST 5:06 PM CST
Civil Twilight 7:23 AM CST 5:37 PM CST
Nautical Twilight 6:48 AM CST 6:12 PM CST
Astronomical Twilight 6:14 AM CST 6:46 PM CST
Moon 4:00 PM CST (12/26) 6:18 AM CST (12/26)
Length of Visible Light 10h 14m
Length of Day
9h 11m
Waxing Gibbous, 97% of the Moon is Illuminated
Dec 26
Waxing Gibbous
Dec 28
Full
Jan 4
Last Quarter
Jan 11
New
Jan 18
First Quarter

Hourly Weather History & Observations

Time (CST) Temp. Windchill Dew Point Humidity Pressure Visibility Wind Dir Wind Speed Gust Speed Precip Events Conditions
1:15 PM - - - N/A% - - North - - N/A   Unknown
1:35 PM - - - N/A% 30.18 in - East 4.6 mph - N/A   Unknown
1:55 PM 17.6 °F 10.7 °F 6.8 °F 63% 30.18 in 10.0 mi East 4.6 mph - N/A   Clear
2:15 PM - - - N/A% - - North - - N/A   Unknown
2:35 PM 17.6 °F 9.3 °F 6.8 °F 63% 30.17 in 10.0 mi East 5.8 mph - N/A   Unknown
2:55 PM 17.6 °F 10.7 °F 6.8 °F 63% 30.17 in 10.0 mi ESE 4.6 mph - N/A   Clear
3:15 PM 17.6 °F 9.3 °F 6.8 °F 63% 30.16 in 10.0 mi East 5.8 mph - N/A   Clear
3:35 PM 17.6 °F 8.2 °F 6.8 °F 63% 30.16 in 10.0 mi East 6.9 mph - N/A   Clear
3:55 PM 15.8 °F 6.1 °F 6.8 °F 68% 30.16 in 10.0 mi ESE 6.9 mph - N/A   Clear
4:15 PM 15.8 °F 7.2 °F 6.8 °F 68% 30.16 in 10.0 mi ESE 5.8 mph - N/A   Clear
4:35 PM 15.8 °F 7.2 °F 6.8 °F 68% 30.16 in 10.0 mi East 5.8 mph - N/A   Clear
4:55 PM 15.8 °F 6.1 °F 6.8 °F 68% 30.15 in 10.0 mi ESE 6.9 mph - N/A   Clear
5:15 PM 15.8 °F 7.2 °F 6.8 °F 68% 30.16 in 10.0 mi SE 5.8 mph - N/A   Clear
5:35 PM 15.8 °F 4.2 °F 6.8 °F 68% 30.14 in 10.0 mi East 9.2 mph - N/A   Clear
5:55 PM 14.0 °F 1.2 °F 6.8 °F 73% 30.14 in 10.0 mi East 10.4 mph - N/A   Clear
6:15 PM 14.0 °F 2.9 °F 6.8 °F 73% 30.13 in 10.0 mi East 8.1 mph - N/A   Clear
6:35 PM 14.0 °F 3.9 °F 6.8 °F 73% 30.13 in 10.0 mi East 6.9 mph - N/A   Clear
6:55 PM 12.2 °F 2.9 °F 6.8 °F 79% 30.14 in 10.0 mi East 5.8 mph - N/A   Clear
7:15 PM 12.2 °F 4.3 °F 6.8 °F 79% 30.14 in 10.0 mi East 4.6 mph - N/A   Clear
7:35 PM 12.2 °F 2.9 °F 6.8 °F 79% 30.13 in 10.0 mi ENE 5.8 mph - N/A   Clear
7:55 PM 10.4 °F 2.2 °F 5.0 °F 79% 30.13 in 10.0 mi East 4.6 mph - N/A   Clear
8:15 PM 10.4 °F 2.2 °F 5.0 °F 79% 30.13 in 10.0 mi East 4.6 mph - N/A   Clear
8:35 PM 10.4 °F 2.2 °F 6.8 °F 85% 30.13 in 10.0 mi East 4.6 mph - N/A   Clear
8:55 PM 10.4 °F 2.2 °F 5.0 °F 79% 30.13 in 10.0 mi East 4.6 mph - N/A   Clear
9:15 PM 10.4 °F -0.4 °F 5.0 °F 79% 30.12 in 10.0 mi East 6.9 mph - N/A   Clear
9:35 PM 10.4 °F 2.2 °F 5.0 °F 79% 30.12 in 10.0 mi East 4.6 mph - N/A   Clear
9:55 PM 10.4 °F -0.4 °F 5.0 °F 79% 30.12 in 10.0 mi East 6.9 mph - N/A   Clear
10:15 PM 10.4 °F -0.4 °F 3.2 °F 73% 30.11 in 10.0 mi East 6.9 mph - N/A   Clear
10:35 PM 8.6 °F -2.6 °F 3.2 °F 79% 30.10 in 10.0 mi East 6.9 mph - N/A   Clear
10:55 PM 8.6 °F -1.3 °F 3.2 °F 79% 30.10 in 10.0 mi East 5.8 mph - N/A   Clear
11:15 PM 8.6 °F -1.3 °F 3.2 °F 79% 30.11 in 10.0 mi East 5.8 mph - N/A   Clear
11:35 PM 6.8 °F -5.9 °F 1.4 °F 79% 30.10 in 10.0 mi East 8.1 mph - N/A   Clear
11:55 PM 6.8 °F -3.5 °F 1.4 °F 79% 30.10 in 10.0 mi East 5.8 mph - N/A   Clear